Murray, KY

12:41 AM CDT on October 21, 2019 (GMT -0500)
Kyle-Oakley

Weather History for KCEY - September, 2019

Change the Weather History Date:

Monday, September 16, 2019

  Actual Average (KPAH) Record (KPAH)
Temperature  
Mean Temperature 80 °F -  
Max Temperature 95 °F 79 °F 97 °F (2019)
Min Temperature 66 °F 59 °F 44 °F (1966)
Cooling Degree Days 16    
Growing Degree Days 30 (Base 50)    
Moisture  
Dew Point 67 °F    
Average Humidity 67    
Maximum Humidity 100    
Minimum Humidity 34    
Precipitation  
Precipitation 0.00 in - - ()
Sea Level Pressure  
Sea Level Pressure 30.07 in    
Wind  
Wind Speed 2 mph (WNW)    
Max Wind Speed 9 mph    
Max Gust Speed -    
Visibility 10 miles    
Events      
Averages and records for this station are not official NWS values.
T = Trace of Precipitation, MM = Missing Value Source: NWS Daily Summary

Daily Weather History Graph

Daily Weather History Graph

Search for Another Location

Airport or City:

Astronomy

Sep. 16, 2019 Rise Set
Actual Time 6:36 AM CDT 6:59 PM CDT
Civil Twilight 6:10 AM CDT 7:25 PM CDT
Nautical Twilight 5:40 AM CDT 7:55 PM CDT
Astronomical Twilight 5:09 AM CDT 8:26 PM CDT
Moon 8:37 PM CDT (9/16) 8:40 AM CDT (9/16)
Length of Visible Light 13h 15m
Length of Day
12h 23m
Waning Gibbous, 94% of the Moon is Illuminated
Sep 16
Waning Gibbous
Sep 21
Last Quarter
Sep 28
New
Oct 5
First Quarter
Oct 13
Full

Hourly Weather History & Observations

Time (CDT) Temp. Heat Index Dew Point Humidity Pressure Visibility Wind Dir Wind Speed Gust Speed Precip Events Conditions
12:15 AM 71.6 °F - 68.0 °F 88% 30.09 in 10.0 mi Calm Calm - N/A   Clear
12:35 AM 69.8 °F - 68.0 °F 94% 30.09 in 10.0 mi Calm Calm - N/A   Unknown
12:55 AM 69.8 °F - 68.0 °F 94% 30.09 in 10.0 mi Calm Calm - N/A   Clear
1:15 AM 69.8 °F - 68.0 °F 94% 30.09 in 10.0 mi Calm Calm - N/A   Clear
1:35 AM 68.0 °F - 68.0 °F 100% 30.09 in 10.0 mi Calm Calm - N/A   Clear
2:15 AM 69.8 °F - 68.0 °F 94% 30.09 in 10.0 mi Calm Calm - N/A   Clear
2:35 AM 68.0 °F - 68.0 °F 100% 30.08 in 10.0 mi Calm Calm - N/A   Unknown
2:55 AM 68.0 °F - 68.0 °F 100% 30.08 in 10.0 mi Calm Calm - N/A   Unknown
3:15 AM 68.0 °F - 68.0 °F 100% 30.08 in 10.0 mi Calm Calm - N/A   Unknown
4:15 AM 68.0 °F - 68.0 °F 100% 30.09 in 10.0 mi Calm Calm - N/A   Clear
4:35 AM 68.0 °F - 68.0 °F 100% 30.09 in 10.0 mi Calm Calm - N/A   Clear
4:55 AM 68.0 °F - 68.0 °F 100% 30.09 in 10.0 mi Calm Calm - N/A   Clear
5:15 AM 66.2 °F - 66.2 °F 100% 30.09 in 10.0 mi Calm Calm - N/A   Clear
5:35 AM 68.0 °F - 66.2 °F 94% 30.10 in 10.0 mi Calm Calm - N/A   Clear
6:15 AM 66.2 °F - 66.2 °F 100% 30.10 in 10.0 mi Calm Calm - N/A   Clear
6:35 AM 66.2 °F - 66.2 °F 100% 30.11 in 10.0 mi Calm Calm - N/A   Clear
6:55 AM 66.2 °F - 66.2 °F 100% 30.11 in 10.0 mi Calm Calm - N/A   Clear
7:15 AM 66.2 °F - 66.2 °F 100% 30.12 in 10.0 mi Calm Calm - N/A   Clear
8:35 AM 78.8 °F - 71.6 °F 78% 30.13 in 10.0 mi Calm Calm - N/A   Clear
8:55 AM 82.4 °F 85.4 °F 68.0 °F 62% 30.13 in 10.0 mi Calm Calm - N/A   Clear
9:15 AM 84.2 °F 87.3 °F 68.0 °F 58% 30.14 in 10.0 mi SW 3.5 mph - N/A   Clear
10:15 AM 89.6 °F 92.2 °F 66.2 °F 46% 30.13 in 10.0 mi West 5.8 mph - N/A   Clear
10:35 AM 89.6 °F 92.2 °F 66.2 °F 46% 30.13 in 10.0 mi WNW 4.6 mph - N/A   Clear
10:55 AM 89.6 °F 92.2 °F 66.2 °F 46% 30.13 in 10.0 mi West 6.9 mph - N/A   Clear
11:15 AM 89.6 °F 92.2 °F 66.2 °F 46% 30.12 in 10.0 mi WNW 9.2 mph - N/A   Clear
11:35 AM 91.4 °F 94.0 °F 66.2 °F 43% 30.12 in 10.0 mi West 9.2 mph - N/A   Clear
12:15 PM 91.4 °F 94.0 °F 66.2 °F 43% 30.11 in 10.0 mi Calm Calm - N/A   Clear
12:35 PM 91.4 °F 94.0 °F 66.2 °F 43% 30.10 in 10.0 mi NNW 6.9 mph - N/A   Clear
12:55 PM 93.2 °F 94.9 °F 64.4 °F 38% 30.09 in 10.0 mi WNW 6.9 mph - N/A   Clear
1:15 PM 93.2 °F 96.2 °F 66.2 °F 41% 30.08 in 10.0 mi NNW 9.2 mph - N/A   Clear
1:35 PM 93.2 °F 94.9 °F 64.4 °F 38% 30.08 in 10.0 mi NW 5.8 mph - N/A   Clear
2:15 PM 93.2 °F 94.9 °F 64.4 °F 38% 30.06 in 10.0 mi WNW 5.8 mph - N/A   Clear
2:35 PM 95.0 °F 96.0 °F 62.6 °F 34% 30.05 in 10.0 mi WNW 4.6 mph - N/A   Clear
2:55 PM 95.0 °F 96.0 °F 62.6 °F 34% 30.05 in 10.0 mi NNW 5.8 mph - N/A   Clear
3:15 PM 95.0 °F 96.0 °F 62.6 °F 34% 30.04 in 10.0 mi NW 5.8 mph - N/A   Clear
4:15 PM 95.0 °F 96.0 °F 62.6 °F 34% 30.03 in 10.0 mi NW 6.9 mph - N/A   Clear
4:35 PM 95.0 °F 96.0 °F 62.6 °F 34% 30.03 in 10.0 mi WNW 4.6 mph - N/A   Clear
4:55 PM 93.2 °F 94.1 °F 62.6 °F 36% 30.02 in 10.0 mi Calm Calm - N/A   Clear
5:15 PM 93.2 °F 94.9 °F 64.4 °F 38% 30.02 in 10.0 mi NNW 5.8 mph - N/A   Clear
5:35 PM 93.2 °F 94.9 °F 64.4 °F 38% 30.02 in 10.0 mi Calm Calm - N/A   Clear
6:15 PM 91.4 °F 94.0 °F 66.2 °F 43% 30.02 in 10.0 mi NW 3.5 mph - N/A   Clear
6:35 PM 87.8 °F 92.6 °F 69.8 °F 55% 30.02 in 10.0 mi Calm Calm - N/A   Clear
6:55 PM 84.2 °F 87.3 °F 68.0 °F 58% 30.02 in 10.0 mi Calm Calm - N/A   Clear
7:15 PM 82.4 °F 86.3 °F 69.8 °F 66% 30.02 in 10.0 mi West 3.5 mph - N/A   Clear
7:35 PM 82.4 °F 85.4 °F 68.0 °F 62% 30.02 in 10.0 mi Calm Calm - N/A   Clear
8:15 PM 80.6 °F 83.2 °F 68.0 °F 65% 30.02 in 10.0 mi West 3.5 mph - N/A   Clear
8:35 PM 80.6 °F 83.2 °F 68.0 °F 65% 30.03 in 10.0 mi West 3.5 mph - N/A   Clear
8:55 PM 80.6 °F 82.7 °F 66.2 °F 61% 30.03 in 10.0 mi Calm Calm - N/A   Clear
9:15 PM 80.6 °F 83.2 °F 68.0 °F 65% 30.03 in 10.0 mi Calm Calm - N/A   Clear
10:15 PM 78.8 °F - 68.0 °F 69% 30.04 in 10.0 mi Calm Calm - N/A   Clear
10:35 PM 77.0 °F - 68.0 °F 74% 30.04 in 10.0 mi West 3.5 mph - N/A   Clear
10:55 PM 77.0 °F - 68.0 °F 74% 30.04 in 10.0 mi West 4.6 mph - N/A   Clear
11:15 PM 77.0 °F - 68.0 °F 74% 30.03 in 10.0 mi West 3.5 mph - N/A   Clear
11:35 PM 77.0 °F - 68.0 °F 74% 30.04 in 10.0 mi NW 4.6 mph - N/A   Clear